Home   Weather   Lübeck   Past weeks

Flag for Germany Past Weather in Lübeck, Schleswig-Holstein, Germany — Yesterday and Last 2 Weeks

Now
45 °F

Scattered clouds.


Feels Like: 38 °F
Forecast: 40 / 47 °F
Wind: 15 mph from West

Location: Luebeck-Blankensee

Current Time: Feb 22, 2017 at 5:03:11 pm

Latest Report: Feb 22, 2017 at 4:20 pm


Visibility: N/A

Pressure: 29.42 "Hg

Humidity: 71%

Dew Point: 36 °F

Location of LübeckLocation

Past Weather in Lübeck — Graph

°F

Lübeck Temperature Yesterday

Maximum temperature yesterday: 48 °F (at 12:50 pm)
Minimum temperature yesterday: 41 °F (at 7:50 am)
Average temperature yesterday: 45 °F

High & Low Weather Summary for the Past Weeks

 TemperatureHumidityPressure
High50 °F (Feb 16, 12:50 pm)100% (Feb 17, 8:20 am)30.69 "Hg (Feb 17, 8:20 am)
Low21 °F (Feb 13, 6:50 am)50% (Feb 15, 2:20 pm)29.39 "Hg (Feb 22, 6:50 am)
Average36 °F79%30.25 "Hg
* Reported Feb 7 3:20 pm — Feb 22 3:50 pm, Lübeck, Weather by CustomWeather, © 2017

Note: Actual official high and low records may vary slightly from our data, if they occured in-between our weather recording intervals... More about our weather records

Advertising

Lübeck Weather History for the Previous 24 Hours

Scroll right to see more
 ConditionsComfort  
Time TempWeatherWind HumidityBarometerVisibility
3:50 pm
Wed, Feb 22
45 °FScattered clouds.13 mph76%29.42 "HgN/A
3:20 pm45 °FScattered clouds.15 mph71%29.42 "HgN/A
2:50 pm46 °FScattered clouds.18 mph66%29.42 "HgN/A
2:20 pm46 °FScattered clouds.14 mph71%29.42 "HgN/A
1:50 pm46 °FScattered clouds.16 mph71%29.45 "HgN/A
1:20 pm46 °FScattered clouds.16 mph76%29.45 "HgN/A
12:50 pm46 °FPartly sunny.13 mph82%29.42 "HgN/A
12:20 pm46 °FPartly sunny.17 mph82%29.42 "HgN/A
11:50 am48 °FPartly sunny.16 mph76%29.42 "HgN/A
11:20 am48 °FPartly sunny.15 mph82%29.42 "HgN/A
10:50 am46 °FLight rain. Broken clouds.15 mph93%29.42 "HgN/A
10:20 am46 °FLight rain. Partly sunny.16 mph93%29.42 "HgN/A
9:50 am46 °FLight rain. Partly sunny.15 mph93%29.42 "HgN/A
9:20 am48 °FRain. Partly sunny.16 mph94%29.42 "Hg4 mi
8:50 am48 °FRain. Fog.12 mph94%29.42 "Hg2 mi
8:20 am48 °FRain. Partly sunny.14 mph94%29.42 "HgN/A
7:20 am48 °FRain. Passing clouds.21 mph94%29.39 "HgN/A
6:50 am50 °FLight rain. Passing clouds.21 mph88%29.39 "HgN/A
6:20 pm
Tue, Feb 21
43 °FPassing clouds.9 mph81%29.80 "HgN/A
5:50 pm43 °FPassing clouds.10 mph81%29.80 "HgN/A
5:20 pm45 °FScattered clouds.12 mph71%29.80 "HgN/A
Weather by CustomWeather, © 2017

See weather overviewHow to use our weather pages